[[{"header":{"parameterUnit":"m.s-1","parameterCategory":1,"la1":30.2991,"la2":30.254,"lo1":-89.0895,"lo2":-89.0444,"dx":0.0017,"dy":0.0017,"nx":28,"ny":28,"refTime":"2022-11-15T15:00:00:Z","depth":0,"parameterNumber":2,"parameterNumberName":"U-component_of_WINDS"},"data":[0,0,0,0,0,0,0,0,0,0,0,0,0,0,0,0,0,0,0,0,0,0,0,0,0,0,0,0,0,0,0,0,0,0,0,0,0,0,0,0,0,0,0,0,0,0,0,0,0,0,0,0,0,0,0,0,0,0,-1.0127,-1.0127,0,-1.0188,-1.0188,-1.0189,-1.0168,-1.0167,-1.0166,-1.0164,-1.0228,-1.0231,-1.0234,0,0,0,0,0,0,0,0,0,0,0,0,0,-0.9993,-0.9995,-1.0127,-1.0127,-1.0128,-1.0188,-1.0188,-1.0189,-1.0169,-1.0167,-1.0165,-1.0164,-1.0227,-1.023,-1.0234,0,0,0,0,0,0,0,0,0,0,0,0,0,-1.0052,-0.9996,-1.0127,-1.0125,-1.0126,-1.0187,-1.0188,-1.0189,-1.0169,-1.0167,-1.0165,-1.0163,-1.0226,-1.023,-1.0234,-1.0302,0,0,-1.0248,-1.025,0,0,0,0,0,0,0,0,-1.0049,-1.0057,-1.0125,-1.0125,-1.0126,-1.0168,-1.0164,-1.0227,-1.017,-1.0153,-1.0164,-1.0162,-1.021,-1.0215,-1.0231,-1.0305,-1.0307,-1.0248,-1.0251,-1.0253,-1.0254,0,0,0,0,0,0,0,-1.0045,-1.0054,-1.0151,-1.0126,-1.0126,-1.0121,-1.0128,-1.0176,-1.0192,-1.0154,-1.0153,-1.016,-1.021,-1.0227,-1.0233,-1.0308,-1.0248,-1.0252,-1.0255,-1.0257,-1.044,-1.0442,0,0,0,0,0,0,-1.004,-1.0051,-1.0149,-1.0153,-1.0082,-1.0126,-1.0132,-1.0157,-1.0191,-1.0194,-1.0162,-1.0159,-1.0221,-1.0228,-1.0235,-1.0316,-1.0253,-1.0257,-1.0259,-1.0438,-1.044,-1.0443,0,0,0,0,0,0,-1.0037,-1.0049,-1.0146,-1.0102,-1.0114,-1.013,-1.0157,-1.0159,-1.0176,-1.0197,-1.02,-1.0176,-1.0219,-1.0229,-1.0285,-1.0318,-1.0259,-1.0263,-1.0435,-1.0438,-1.0441,-1.048,0,0,0,0,0,0,-1.0034,-1.0048,-1.0074,-1.0102,-1.0116,-1.0196,-1.0159,-1.0162,-1.0184,-1.0181,-1.0212,-1.0215,-1.0218,-1.0279,-1.029,-1.0323,-1.0266,-1.0432,-1.0436,-1.044,-1.0475,-1.0484,-1.0491,0,0,0,0,0,-1.0029,-1.0083,-1.0075,-1.0087,-1.0149,-1.0198,-1.0206,-1.0209,-1.0187,-1.0213,-1.0226,-1.0214,-1.0312,-1.0285,-1.0297,-1.0332,-1.043,-1.0435,-1.044,-1.0472,-1.0482,-1.0491,0,0,0,0,0,0,-1.0059,-1.0086,-1.0079,-1.0143,-1.0168,-1.0194,-1.0228,-1.0219,-1.0252,-1.0247,-1.0249,-1.0257,-1.0315,-1.0329,-1.0298,-1.0399,-1.0368,-1.0376,-1.0388,-1.0398,-1.0405,-1.0402,-1.027,0,0,0,0,0,-1.0072,-1.011,-1.0132,-1.0187,-1.02,-1.0211,-1.0233,-1.0233,-1.0259,-1.027,-1.0287,-1.0313,-1.035,-1.0374,-1.0409,-1.0476,-1.0483,-1.0507,-1.0514,-1.0521,-1.0528,-1.0565,-1.0575,-1.0459,-1.0459,-1.0459,0,0,-1.0102,-1.0122,-1.0145,-1.0193,-1.0213,-1.0252,-1.0221,-1.0263,-1.0293,-1.0276,-1.0331,-1.0344,-1.0374,-1.0436,-1.0464,-1.0449,-1.0561,-1.0527,-1.0532,-1.0536,-1.0571,-1.0582,-1.0592,-1.0463,-1.0462,-1.0461,0,0,-1.0176,-1.0194,-1.0242,-1.0262,-1.0291,-1.0299,-1.031,-1.0337,-1.0345,-1.04,-1.0388,-1.0423,-1.0486,-1.0507,-1.0527,-1.0607,-1.0597,-1.0618,-1.0659,-1.0695,-1.0704,-1.0712,-1.0742,-1.0752,-1.0625,-1.0625,-1.0625,0,-1.0209,-1.0268,-1.0268,-1.0311,-1.0333,-1.0319,-1.0367,-1.0387,-1.0426,-1.0441,-1.0424,-1.0503,-1.0521,-1.0588,-1.0608,-1.0623,-1.0637,-1.0616,-1.0703,-1.0711,-1.0719,-1.0747,-1.0758,-1.0627,-1.0627,-1.0627,-1.0626,0,-1.0307,-1.0348,-1.0383,-1.0421,-1.0446,-1.0492,-1.0499,-1.0524,-1.0521,-1.053,-1.0586,-1.0607,-1.0646,-1.0662,-1.066,-1.0729,-1.0719,-1.0702,-1.0671,-1.0732,-1.0759,-1.0769,-1.0631,-1.063,-1.0629,-1.0629,0,0,-1.0404,-1.044,-1.0453,-1.0471,-1.0501,-1.0533,-1.0577,-1.0615,-1.0637,-1.0664,-1.0702,-1.0755,-1.074,-1.0761,-1.0761,-1.0792,-1.0855,-1.0772,-1.0772,-1.0787,-1.0933,-1.0947,-1.0959,-1.0848,-1.085,-1.0852,-1.0931,0,-1.0482,-1.056,-1.0561,-1.0634,-1.0671,-1.0658,-1.0697,-1.072,-1.0729,-1.0762,-1.0772,-1.081,-1.0786,-1.0799,-1.0829,-1.0841,-1.0885,-1.0835,-1.0884,-1.0886,-1.0879,-1.0973,-1.0988,-1.1062,-1.0941,-1.0943,-1.0944,0,-1.0583,-1.0613,-1.069,-1.0714,-1.073,-1.0765,-1.08,-1.0831,-1.0857,-1.0861,-1.0885,-1.0879,-1.0925,-1.0891,-1.0954,-1.092,-1.094,-1.0949,-1.0951,-1.0958,-1.092,-1.0983,-1.1086,-1.1097,-1.0961,-1.0959,-1.0958,0,-1.0648,-1.0707,-1.076,-1.0775,-1.0805,-1.083,-1.0844,-1.0867,-1.089,-1.0919,-1.0934,-1.0968,-1.0988,-1.1015,-1.1019,-1.0993,-1.1082,-1.1049,-1.1088,-1.1088,-1.1109,-1.1108,-1.1217,-1.1119,-1.1118,-1.1118,-1.1118,0,-1.0735,-1.0783,-1.079,-1.0823,-1.0875,-1.0875,-1.0927,-1.0939,-1.0959,-1.0995,-1.0984,-1.1017,-1.102,-1.1053,-1.1057,-1.1109,-1.1117,-1.1122,-1.1123,-1.1124,-1.1124,-1.1139,-1.1134,-1.1121,-1.112,-1.112,-1.1119,0,-1.0817,-1.0823,-1.0881,-1.0904,-1.0911,-1.0949,-1.0969,-1.1,-1.1007,-1.1052,-1.1062,-1.1073,-1.1113,-1.1119,-1.1165,-1.1167,-1.1229,-1.1224,-1.1221,-1.1221,-1.126,-1.1257,-1.1384,-1.1402,-1.129,-1.1291,-1.1292,0,-1.0874,-1.091,-1.0937,-1.0959,-1.0974,-1.101,-1.1033,-1.1033,-1.1057,-1.1088,-1.1116,-1.1154,-1.1185,-1.1248,-1.1261,-1.1296,-1.1292,-1.1334,-1.1297,-1.1297,-1.1294,-1.1292,-1.1296,-1.1342,-1.1343,-1.1344,-1.1345,0,-1.0974,-1.0975,-1.1007,-1.1041,-1.1068,-1.1095,-1.112,-1.1139,-1.1143,-1.117,-1.121,-1.1234,-1.128,-1.1318,-1.1352,-1.1366,-1.1357,-1.1356,-1.1367,-1.137,-1.1367,-1.137,-1.1242,-1.1354,-1.1353,-1.1352,-1.1352,-1.1351,-1.1046,-1.1077,-1.1101,-1.1137,-1.1156,-1.118,-1.121,-1.1221,-1.1254,-1.1292,-1.1289,-1.1333,-1.1357,-1.1402,-1.1418,-1.1452,-1.1439,-1.1455,-1.1459,-1.1463,-1.1468,-1.136,-1.1458,-1.1458,-1.1458,-1.1458,-1.1458,0,-1.1146,-1.116,-1.1194,-1.1229,-1.1258,-1.1245,-1.1271,-1.1297,-1.1335,-1.1358,-1.1388,-1.1433,-1.147,-1.1484,-1.152,-1.1544,-1.1541,-1.1554,-1.1553,-1.1557,-1.1477,-1.1465,-1.1556,-1.1556,-1.1556,-1.1556,-1.1556,-1.1556,-1.1202,-1.1255,-1.1258,-1.132,-1.1334,-1.1376,-1.1393,-1.1414,-1.1432,-1.1484,-1.1514,-1.1522,-1.1542,-1.1579,-1.1611,-1.1614,-1.1629,-1.1644,-1.1646,-1.1572,-1.1562,-1.1553,-1.1541,-1.1647,-1.1647,-1.1722,-1.1723,-1.1723]},{"header":{"parameterUnit":"m.s-1","parameterCategory":1,"la1":30.2991,"la2":30.254,"lo1":-89.0895,"lo2":-89.0444,"dx":0.0017,"dy":0.0017,"nx":28,"ny":28,"refTime":"2022-11-15T15:00:00:Z","depth":0,"parameterNumber":3,"parameterNumberName":"V-component_of_WINDS"},"data":[0,0,0,0,0,0,0,0,0,0,0,0,0,0,0,0,0,0,0,0,0,0,0,0,0,0,0,0,0,0,0,0,0,0,0,0,0,0,0,0,0,0,0,0,0,0,0,0,0,0,0,0,0,0,0,0,0,0,-7.7325,-7.7326,0,-7.7454,-7.7455,-7.7456,-7.7387,-7.7383,-7.738,-7.7376,-7.7502,-7.7508,-7.7515,0,0,0,0,0,0,0,0,0,0,0,0,0,-7.7012,-7.7018,-7.7325,-7.7326,-7.7328,-7.7453,-7.7455,-7.7457,-7.7387,-7.7383,-7.7379,-7.7375,-7.75,-7.7507,-7.7515,0,0,0,0,0,0,0,0,0,0,0,0,0,-7.7145,-7.702,-7.7324,-7.7308,-7.7308,-7.7453,-7.7455,-7.7457,-7.7388,-7.7383,-7.7378,-7.7373,-7.7497,-7.7507,-7.7517,-7.7682,0,0,-7.7547,-7.7551,0,0,0,0,0,0,0,0,-7.7137,-7.7156,-7.7309,-7.731,-7.731,-7.7399,-7.7391,-7.7533,-7.7389,-7.7358,-7.7376,-7.737,-7.7471,-7.7483,-7.7519,-7.7688,-7.7694,-7.7548,-7.7554,-7.7558,-7.7561,0,0,0,0,0,0,0,-7.7128,-7.715,-7.7375,-7.7311,-7.7312,-7.7293,-7.7306,-7.7417,-7.7442,-7.736,-7.7355,-7.7372,-7.747,-7.7509,-7.7521,-7.7695,-7.7547,-7.7556,-7.7562,-7.7566,-7.8007,-7.8012,0,0,0,0,0,0,-7.7121,-7.7143,-7.7371,-7.7379,-7.7209,-7.7303,-7.7317,-7.7375,-7.7441,-7.7446,-7.7376,-7.7368,-7.7495,-7.7509,-7.7525,-7.7724,-7.7558,-7.7567,-7.7573,-7.8001,-7.8008,-7.8014,0,0,0,0,0,0,-7.7115,-7.7142,-7.7366,-7.726,-7.7287,-7.7314,-7.7379,-7.7381,-7.7419,-7.7453,-7.7456,-7.7412,-7.7491,-7.7511,-7.7644,-7.7727,-7.7571,-7.758,-7.7994,-7.8003,-7.8011,-7.8122,0,0,0,0,0,0,-7.7106,-7.714,-7.7205,-7.7262,-7.7293,-7.7485,-7.7385,-7.7387,-7.7437,-7.7428,-7.7487,-7.7492,-7.7489,-7.763,-7.7654,-7.7738,-7.7588,-7.7987,-7.7998,-7.8008,-7.8111,-7.8133,-7.8152,0,0,0,0,0,-7.7095,-7.723,-7.7209,-7.7237,-7.7375,-7.749,-7.7508,-7.7503,-7.7444,-7.7509,-7.753,-7.749,-7.7714,-7.7644,-7.7671,-7.7759,-7.7982,-7.7995,-7.8008,-7.8102,-7.8129,-7.8152,0,0,0,0,0,0,-7.7179,-7.7237,-7.7214,-7.7372,-7.7427,-7.7478,-7.756,-7.7532,-7.7604,-7.7592,-7.7581,-7.7595,-7.7733,-7.7759,-7.768,-7.7922,-7.7838,-7.7857,-7.7901,-7.7927,-7.7947,-7.7938,-7.7596,0,0,0,0,0,-7.7217,-7.7307,-7.7352,-7.7486,-7.7516,-7.7533,-7.7583,-7.7575,-7.7631,-7.7653,-7.7684,-7.7738,-7.782,-7.7875,-7.7952,-7.8114,-7.8125,-7.8187,-7.8208,-7.8225,-7.8242,-7.8328,-7.8356,-7.8057,-7.8057,-7.8057,0,0,-7.7294,-7.7336,-7.7394,-7.7505,-7.7546,-7.7639,-7.7553,-7.7654,-7.7722,-7.7667,-7.7796,-7.7821,-7.788,-7.8028,-7.8094,-7.8053,-7.8327,-7.8242,-7.8255,-7.8262,-7.8345,-7.8373,-7.8398,-7.8066,-7.8064,-7.8063,0,0,-7.7482,-7.7524,-7.7641,-7.7685,-7.775,-7.7761,-7.7789,-7.7845,-7.786,-7.7989,-7.795,-7.8029,-7.8171,-7.8215,-7.8256,-7.8461,-7.8427,-7.8487,-7.8595,-7.868,-7.8703,-7.8724,-7.8797,-7.8823,-7.8503,-7.8503,-7.8503,0,-7.7569,-7.7709,-7.7704,-7.7809,-7.7858,-7.7815,-7.7933,-7.7975,-7.8061,-7.8095,-7.8048,-7.8226,-7.8263,-7.8421,-7.8471,-7.8505,-7.8536,-7.848,-7.8701,-7.8722,-7.8741,-7.881,-7.8838,-7.851,-7.8509,-7.8508,-7.8508,0,-7.7813,-7.7911,-7.7997,-7.8084,-7.8143,-7.8254,-7.8263,-7.8323,-7.8309,-7.8325,-7.8456,-7.8498,-7.8584,-7.862,-7.8608,-7.8777,-7.8749,-7.8702,-7.8617,-7.8777,-7.8842,-7.8868,-7.852,-7.8517,-7.8515,-7.8514,0,0,-7.8059,-7.8142,-7.8174,-7.8213,-7.8281,-7.8356,-7.8463,-7.8549,-7.8601,-7.8661,-7.875,-7.8872,-7.8829,-7.8875,-7.8867,-7.8941,-7.9101,-7.8885,-7.8886,-7.8924,-7.9289,-7.9325,-7.9356,-7.9078,-7.9083,-7.9087,-7.9284,0,-7.8252,-7.8443,-7.8441,-7.8618,-7.8707,-7.8667,-7.8761,-7.8812,-7.8829,-7.8905,-7.8922,-7.9009,-7.8946,-7.8974,-7.9046,-7.9067,-7.9174,-7.9052,-7.916,-7.9164,-7.9147,-7.939,-7.9428,-7.9611,-7.931,-7.9314,-7.9317,0,-7.8503,-7.8574,-7.8761,-7.8816,-7.8854,-7.8939,-7.9017,-7.9091,-7.9148,-7.9154,-7.9207,-7.9187,-7.9294,-7.9207,-7.9354,-7.9271,-7.9314,-7.9331,-7.9338,-7.9348,-7.925,-7.9406,-7.967,-7.9698,-7.9357,-7.9354,-7.9351,0,-7.8663,-7.8806,-7.8936,-7.897,-7.9039,-7.9099,-7.913,-7.9181,-7.9233,-7.9301,-7.9334,-7.9412,-7.9455,-7.9515,-7.9516,-7.9452,-7.9665,-7.9577,-7.9672,-7.9672,-7.9719,-7.9716,-7.9994,-7.9747,-7.9746,-7.9746,-7.9745,0,-7.8879,-7.8995,-7.9009,-7.9089,-7.9217,-7.9212,-7.9338,-7.9362,-7.9409,-7.9491,-7.946,-7.9537,-7.9534,-7.9612,-7.9612,-7.9734,-7.9753,-7.9761,-7.976,-7.9764,-7.9763,-7.9792,-7.978,-7.9753,-7.9752,-7.975,-7.9749,0,-7.9081,-7.9095,-7.9234,-7.9288,-7.9304,-7.9396,-7.944,-7.9515,-7.9529,-7.9634,-7.9658,-7.9679,-7.977,-7.9776,-7.988,-7.988,-8.0028,-8.0012,-8.001,-8.0007,-8.0102,-8.0093,-8.0408,-8.0449,-8.0176,-8.0178,-8.018,0,-7.9218,-7.9306,-7.937,-7.9424,-7.9459,-7.9547,-7.96,-7.9598,-7.9654,-7.9726,-7.9792,-7.9879,-7.995,-8.0095,-8.0119,-8.0197,-8.0184,-8.0289,-8.0195,-8.0197,-8.0185,-8.018,-8.0189,-8.0307,-8.031,-8.0312,-8.0314,0,-7.946,-7.9463,-7.9542,-7.9625,-7.969,-7.9753,-7.9813,-7.9858,-7.9863,-7.9928,-8.0021,-8.0076,-8.0183,-8.027,-8.0347,-8.0375,-8.0346,-8.0344,-8.037,-8.0375,-8.037,-8.0374,-8.006,-8.0336,-8.0334,-8.0333,-8.0331,-8.0331,-7.9634,-7.971,-7.9768,-7.9857,-7.9902,-7.9958,-8.0032,-8.0056,-8.0134,-8.0223,-8.0216,-8.0319,-8.0372,-8.0473,-8.0508,-8.0587,-8.0551,-8.0589,-8.0598,-8.0608,-8.0618,-8.0358,-8.0601,-8.06,-8.0599,-8.0599,-8.0599,0,-7.9874,-7.9909,-7.9992,-8.0077,-8.0147,-8.0115,-8.0179,-8.0239,-8.0331,-8.0384,-8.0454,-8.0561,-8.0645,-8.0675,-8.0757,-8.0814,-8.0802,-8.0835,-8.0831,-8.0838,-8.0645,-8.0615,-8.0843,-8.0843,-8.0843,-8.0843,-8.0843,-8.0843,-8.0008,-8.0136,-8.0146,-8.0295,-8.0328,-8.0431,-8.0471,-8.0522,-8.0564,-8.0686,-8.0757,-8.0776,-8.082,-8.0904,-8.0979,-8.0986,-8.1017,-8.1056,-8.1057,-8.0876,-8.0852,-8.0828,-8.0799,-8.1063,-8.1063,-8.1243,-8.1245,-8.1246]}]]